CW8262 Tokoroa NZ current weather conditions

sailwx.info

Wind at 0 knots gusting 1

Air temperature 20.6° C
Dewpoint 15.8° C

Last reported at 2020-Jan-26 09:07 UTC.
Time now 2020-Jan-26 09:39 UTC

Location: S 38°12' E 175°52'.
View on Google Maps.

See reports from other nearby stations

  
Tides and Currents Weather Stations Pressure Air Temp Water Temp Dewpoint Dewpoint Depression Visibility Wind Speed Wind Dir Waves Ship Positions
date/time (UTC)wind fromknots sea level pressurealtimeterstation pressurevisibilityair tempwater tempwave heightnotes
2020-Jan-26 09:07 20.6
2020-Jan-26 08:47 21.1
2020-Jan-26 08:42 003 0 gusting 1 21.1
2020-Jan-26 08:37 21.7
2020-Jan-26 08:27 045 0 gusting 2 21.7
2020-Jan-26 08:17 22.2
2020-Jan-26 08:12 356 22.8
2020-Jan-26 08:07 022 0 gusting 0 22.8
2020-Jan-26 08:02 003 1 gusting 1 22.8
2020-Jan-26 07:57 338 1 gusting 1 23.3
2020-Jan-26 07:47 315 1 gusting 4 23.3
2020-Jan-26 07:42 333 1 gusting 4 23.9
2020-Jan-26 07:37 24.4
2020-Jan-26 07:27 292 4 gusting 6 25.0
2020-Jan-26 07:22 274 5 gusting 6 25.0
2020-Jan-26 07:07 270 6 gusting 8 26.1
2020-Jan-26 06:42 264 6 gusting 7 28.3
2020-Jan-26 06:32 270 5 gusting 7 28.9
2020-Jan-26 06:27 270 5 gusting 7 28.9
2020-Jan-26 06:17 292 6 gusting 7 29.4
2020-Jan-26 06:12 292 6 gusting 7 29.4
2020-Jan-26 06:07 248 6 gusting 7 30.0
2020-Jan-26 06:02 276 6 gusting 7 30.0
2020-Jan-26 05:57 270 5 gusting 6 30.0
2020-Jan-26 05:52 276 5 gusting 7 30.6
2020-Jan-26 05:47 270 5 gusting 5 30.6
2020-Jan-26 05:42 267 6 gusting 6 30.6
2020-Jan-26 05:37 270 6 gusting 8 30.6
2020-Jan-26 05:27 315 6 gusting 8 31.1
2020-Jan-26 05:22 295 6 gusting 8 31.1
2020-Jan-26 05:17 315 6 gusting 8 31.1
2020-Jan-26 05:02 288 6 gusting 8 31.7
2020-Jan-26 04:57 292 6 gusting 7 31.7
2020-Jan-26 04:32 292 5 gusting 7 31.7
2020-Jan-26 03:47 315 2 gusting 6 32.2
2020-Jan-26 03:42 315 2 gusting 6 32.8
2020-Jan-26 03:37 338 5 gusting 6 32.2
2020-Jan-26 03:32 224 5 gusting 6 32.2
2020-Jan-26 03:27 292 4 gusting 6 32.2
2020-Jan-26 03:17 315 2 gusting 6 32.2
2020-Jan-26 03:12 315 4 gusting 6 32.8
2020-Jan-26 03:02 304 5 gusting 6 32.8
2020-Jan-26 02:57 292 5 gusting 7 32.8
2020-Jan-26 02:52 315 5 gusting 6 32.8
2020-Jan-26 02:47 315 5 gusting 7 32.8
2020-Jan-26 02:27 338 5 gusting 6 32.8
2020-Jan-26 02:22 315 5 gusting 6 32.8
2020-Jan-26 02:17 292 4 gusting 6 32.8
2020-Jan-26 02:12 336 4 gusting 5 32.8
2020-Jan-26 02:07 270 4 gusting 6 32.2
2020-Jan-26 02:02 294 4 gusting 6 32.2
2020-Jan-26 01:52 336 5 gusting 8 32.2
2020-Jan-26 01:47 292 4 gusting 10 32.2
2020-Jan-26 01:42 158 4 gusting 6 32.2
2020-Jan-26 01:32 287 4 gusting 6 32.2
2020-Jan-26 01:27 315 4 gusting 5 31.7
2020-Jan-26 01:22 014 4 gusting 6 31.7
2020-Jan-26 01:17 315 4 gusting 6 31.7
2020-Jan-26 01:07 315 4 gusting 7 31.1
2020-Jan-26 01:02 319 4 gusting 7 31.7
2020-Jan-26 00:52 035 4 gusting 6 31.7
2020-Jan-26 00:47 315 4 gusting 6 31.1
2020-Jan-26 00:42 277 4 gusting 6 31.1
2020-Jan-26 00:37 248 2 gusting 6 31.1
2020-Jan-26 00:32 256 4 gusting 6 31.1
2020-Jan-26 00:27 022 5 gusting 6 31.1
2020-Jan-26 00:22 274 4 gusting 10 31.1
2020-Jan-26 00:17 315 4 gusting 6 30.6
2020-Jan-26 00:07 315 4 gusting 7 30.6
2020-Jan-26 00:02 274 4 gusting 6 30.6
2020-Jan-25 23:52 253 2 gusting 5 30.0
2020-Jan-25 23:47 315 2 gusting 8 30.0
2020-Jan-25 23:42 300 4 gusting 5 30.0
2020-Jan-25 23:37 225 4 gusting 6 30.0
2020-Jan-25 23:27 315 2 gusting 5 29.4
2020-Jan-25 23:22 315 2 gusting 5 29.4
2020-Jan-25 23:17 338 2 gusting 5 28.9
2020-Jan-25 23:12 300 2 gusting 6 28.9
2020-Jan-25 23:07 315 2 gusting 6 28.9
2020-Jan-25 23:02 315 2 gusting 6 28.9
2020-Jan-25 22:57 338 2 gusting 6 28.3
2020-Jan-25 22:52 282 2 gusting 6 27.8
2020-Jan-25 22:47 338 2 gusting 4 27.8
2020-Jan-25 22:32 307 0 gusting 5 27.2
2020-Jan-25 22:27 26.7
2020-Jan-25 22:22 041 2 gusting 4 26.1
2020-Jan-25 22:12 315 1 gusting 6 26.1
2020-Jan-25 22:02 307 1 gusting 4 25.6
2020-Jan-25 21:57 022 1 gusting 5 25.0
2020-Jan-25 21:52 315 2 gusting 5 25.0
2020-Jan-25 21:47 315 2 gusting 5 24.4
2020-Jan-25 21:42 301 2 gusting 5 24.4
2020-Jan-25 21:37 315 1 gusting 4 24.4
2020-Jan-25 21:32 338 0 gusting 2 23.9
2020-Jan-25 21:27 338 1 gusting 2 23.3
2020-Jan-25 21:22 315 2 gusting 4 23.3
2020-Jan-25 21:12 315 1 gusting 6 22.2
2020-Jan-25 21:02 341 1 gusting 0 21.1
2020-Jan-25 20:57 292 1 gusting 2 20.6
2020-Jan-25 20:47 315 1 gusting 2 19.4
2020-Jan-25 20:42 292 1 gusting 2 19.4
2020-Jan-25 20:27 338 0 gusting 1 18.3
2020-Jan-25 20:22 315 0 gusting 1 18.3
2020-Jan-25 20:17 315 1 gusting 2 17.8
2020-Jan-25 20:12 258 2 gusting 2 17.8
2020-Jan-25 19:52 292 0 gusting 2 17.2
2020-Jan-25 19:47 315 1 gusting 2 17.2
2020-Jan-25 19:42 325 0 gusting 2 17.2
2020-Jan-25 19:37 315 1 gusting 2 17.2
2020-Jan-25 19:32 264 0 gusting 2 16.7
2020-Jan-25 19:27 270 0 gusting 1 16.7
2020-Jan-25 19:07 135 16.7
2020-Jan-25 19:02 003 16.7
2020-Jan-25 18:57 315 16.7
2020-Jan-25 18:52 029 0 16.7
2020-Jan-25 18:47 338 0 gusting 1 16.7
2020-Jan-25 18:42 304 0 gusting 1 16.1
2020-Jan-25 18:22 079 16.1
2020-Jan-25 18:12 298 16.1
2020-Jan-25 18:07 315 0 gusting 0 16.1
2020-Jan-25 17:57 315 16.1
2020-Jan-25 17:52 260 16.1
2020-Jan-25 17:42 292 16.1
2020-Jan-25 17:37 315 0 gusting 0 16.1
2020-Jan-25 17:22 299 16.1
2020-Jan-25 17:12 324 1 gusting 2 16.1
2020-Jan-25 17:02 306 1 gusting 4 16.1
2020-Jan-25 16:52 302 0 gusting 1 16.1
2020-Jan-25 16:47 315 0 gusting 1 16.1
2020-Jan-25 16:42 292 0 gusting 1 16.1
2020-Jan-25 16:37 292 16.1
2020-Jan-25 16:32 352 16.1
2020-Jan-25 16:22 332 16.1
2020-Jan-25 16:17 338 0 gusting 1 16.1
2020-Jan-25 16:12 315 0 gusting 1 16.1
2020-Jan-25 16:07 310 0 gusting 1 16.1
2020-Jan-25 15:57 338 0 gusting 0 16.1
2020-Jan-25 15:52 338 0 gusting 0 16.1
2020-Jan-25 15:42 315 0 gusting 0 16.1
2020-Jan-25 15:37 315 0 gusting 2 16.7
2020-Jan-25 15:32 315 0 gusting 2 16.7
2020-Jan-25 15:27 315 0 gusting 1 16.7
2020-Jan-25 15:22 338 1 gusting 0 16.7
2020-Jan-25 15:07 315 0 gusting 1 16.7
2020-Jan-25 14:57 16.7
2020-Jan-25 14:47 022 16.7
2020-Jan-25 14:37 037 16.7
2020-Jan-25 14:32 024 16.7
2020-Jan-25 14:27 315 16.7
2020-Jan-25 14:22 067 16.7
2020-Jan-25 14:12 003 16.7
2020-Jan-25 14:07 16.7
2020-Jan-25 13:57 022 0 gusting 0 16.7
2020-Jan-25 13:52 345 0 gusting 1 16.7
2020-Jan-25 13:47 315 16.7
2020-Jan-25 13:42 321 16.7
2020-Jan-25 13:37 16.7
2020-Jan-25 13:32 330 16.7
2020-Jan-25 13:27 022 0 gusting 1 16.7
2020-Jan-25 13:22 031 16.7
2020-Jan-25 13:17 315 16.7
2020-Jan-25 13:12 053 16.7
2020-Jan-25 12:57 022 0 gusting 0 16.7
2020-Jan-25 12:52 348 0 gusting 2 16.7
2020-Jan-25 12:47 16.7
2020-Jan-25 12:42 350 16.7
2020-Jan-25 12:37 045 0 16.7
2020-Jan-25 12:27 022 0 gusting 1 16.7
2020-Jan-25 12:22 16.7
2020-Jan-25 12:17 338 0 gusting 1 16.7
2020-Jan-25 12:12 338 0 gusting 1 16.7
2020-Jan-25 12:07 022 0 gusting 1 16.7
2020-Jan-25 12:02 230 16.7
2020-Jan-25 11:47 338 16.7
2020-Jan-25 11:42 333 16.7
2020-Jan-25 11:37 022 0 gusting 0 16.7
2020-Jan-25 11:32 315 0 gusting 0 16.7
2020-Jan-25 11:27 022 16.7
2020-Jan-25 11:17 022 0 gusting 0 16.7
2020-Jan-25 11:07 338 16.7
2020-Jan-25 10:42 355 16.7
2020-Jan-25 10:37 16.7
2020-Jan-25 10:32 038 0 gusting 0 16.7
2020-Jan-25 10:27 022 17.2
2020-Jan-25 10:17 045 17.2
2020-Jan-25 10:07 338 17.2
2020-Jan-25 10:02 321 0 gusting 0 17.8
2020-Jan-25 09:52 322 1 gusting 1 17.8
2020-Jan-25 09:47 292 1 gusting 1 17.8
2020-Jan-25 09:42 308 1 gusting 2 17.8
2020-Jan-25 09:37 315 1 gusting 2 18.3
2020-Jan-25 09:32 338 1 gusting 2 18.3
2020-Jan-25 09:27 18.3
2020-Jan-25 09:22 338 0 gusting 1 18.3
2020-Jan-25 09:17 338 0 gusting 1 18.9
2020-Jan-25 09:07 18.9
2020-Jan-25 09:02 011 0 gusting 1 18.9
2020-Jan-25 08:42 040 19.4
2020-Jan-25 08:22 315 0 gusting 1 20.6
2020-Jan-25 08:17 338 20.6
2020-Jan-25 08:02 358 21.7
2020-Jan-25 07:57 338 0 21.7
2020-Jan-25 07:47 338 1 gusting 2 22.2
2020-Jan-25 07:42 326 1 gusting 2 22.2
2020-Jan-25 07:32 315 2 gusting 2 23.3
2020-Jan-25 07:27 292 2 gusting 2 23.3
2020-Jan-25 07:22 270 2 gusting 5 23.3
2020-Jan-25 07:17 292 2 gusting 5 23.9
2020-Jan-25 07:12 292 4 gusting 4 24.4
2020-Jan-25 07:07 270 4 gusting 4 24.4
2020-Jan-25 07:02 286 4 gusting 6 25.0
2020-Jan-25 06:57 270 5 gusting 6 25.0
2020-Jan-25 06:52 270 5 gusting 6 25.6
2020-Jan-25 06:47 270 5 gusting 6 26.1
2020-Jan-25 06:42 285 6 gusting 7 26.1
2020-Jan-25 06:37 315 5 gusting 7 26.7
2020-Jan-25 06:22 270 6 gusting 11 27.2
2020-Jan-25 06:12 270 6 gusting 7 27.8
2020-Jan-25 05:57 292 6 gusting 7 28.3
2020-Jan-25 05:52 292 7 gusting 8 28.3
2020-Jan-25 05:47 270 6 gusting 8 28.3
2020-Jan-25 05:37 292 6 gusting 7 28.9
2020-Jan-25 05:32 278 6 gusting 7 28.9
2020-Jan-25 05:27 292 6 gusting 6 28.9
2020-Jan-25 05:17 315 6 gusting 10 28.9
2020-Jan-25 05:07 292 6 gusting 10 28.9
2020-Jan-25 05:02 315 6 gusting 7 28.9
2020-Jan-25 04:52 270 6 gusting 7 29.4
2020-Jan-25 04:47 315 6 gusting 7 29.4
2020-Jan-25 04:42 315 6 gusting 6 29.4
2020-Jan-25 04:32 279 6 gusting 8 29.4
2020-Jan-25 04:27 292 6 gusting 6 29.4
2020-Jan-25 04:22 270 6 gusting 8 29.4
2020-Jan-25 04:17 315 6 gusting 7 29.4
2020-Jan-25 04:07 292 6 gusting 8 30.0
2020-Jan-25 04:02 272 6 gusting 8 30.0
2020-Jan-25 03:52 328 6 gusting 10 30.0
2020-Jan-25 03:47 292 6 gusting 6 30.6
2020-Jan-25 03:27 292 6 gusting 10 30.6
2020-Jan-25 03:22 304 6 gusting 10 30.6
2020-Jan-25 03:17 292 6 gusting 10 30.6
2020-Jan-25 03:12 281 6 gusting 6 30.6
2020-Jan-25 03:02 303 6 gusting 7 30.6
2020-Jan-25 02:57 270 6 gusting 7 30.6
2020-Jan-25 02:52 293 6 gusting 12 30.6
2020-Jan-25 02:47 315 6 gusting 7 30.6
2020-Jan-25 02:42 291 6 gusting 10 30.6
2020-Jan-25 02:32 293 5 gusting 7 30.6
2020-Jan-25 02:22 259 6 gusting 7 30.0
2020-Jan-25 02:17 292 6 gusting 6 30.0
2020-Jan-25 02:12 304 6 gusting 8 30.0
2020-Jan-25 02:07 112 6 gusting 6 29.4
2020-Jan-25 02:02 315 6 gusting 10 29.4
2020-Jan-25 01:57 315 6 gusting 10 29.4
2020-Jan-25 01:47 292 6 gusting 7 29.4
2020-Jan-25 01:42 312 5 gusting 8 29.4
2020-Jan-25 01:32 274 5 gusting 6 28.9
2020-Jan-25 01:27 292 5 gusting 6 28.9
2020-Jan-25 01:22 301 5 gusting 6 29.4
2020-Jan-25 01:12 272 4 gusting 7 28.9
2020-Jan-25 01:07 28.9
2020-Jan-25 01:02 305 4 gusting 6 28.9
2020-Jan-25 00:52 290 5 gusting 6 28.3
2020-Jan-25 00:42 304 4 gusting 8 28.3
2020-Jan-25 00:37 315 4 gusting 5 27.8
2020-Jan-25 00:27 292 6 gusting 6 27.8
2020-Jan-25 00:22 282 6 gusting 7 27.8
2020-Jan-25 00:17 292 5 gusting 6 27.8
2020-Jan-25 00:07 315 5 gusting 7 27.8
2020-Jan-25 00:02 292 5 gusting 6 27.2
2020-Jan-24 23:57 270 5 gusting 6 27.2
2020-Jan-24 23:52 270 5 gusting 6 27.2
2020-Jan-24 23:42 304 5 gusting 7 27.2
2020-Jan-24 23:37 292 5 gusting 10 27.2
2020-Jan-24 23:22 294 4 gusting 7 26.7
2020-Jan-24 23:12 270 4 gusting 6 26.1
2020-Jan-24 23:07 270 4 gusting 6 25.6
2020-Jan-24 23:02 280 2 gusting 6 25.6
2020-Jan-24 22:57 292 4 gusting 5 25.6
2020-Jan-24 22:52 269 4 gusting 6 25.0
2020-Jan-24 22:47 270 3 gusting 6 25.0
2020-Jan-24 22:37 25.0
2020-Jan-24 22:32 320 2 gusting 6 25.0
2020-Jan-24 22:27 315 2 gusting 6 24.4
2020-Jan-24 22:22 356 2 gusting 5 24.4
2020-Jan-24 22:17 022 2 gusting 5 24.4
2020-Jan-24 22:12 24.4
2020-Jan-24 22:07 022 1 gusting 2 23.9
2020-Jan-24 22:02 315 1 gusting 4 23.3
2020-Jan-24 21:57 022 2 gusting 1 23.3
2020-Jan-24 21:52 297 2 gusting 4 22.8
2020-Jan-24 21:47 315 1 gusting 6 22.8
2020-Jan-24 21:42 309 1 gusting 1 22.2
2020-Jan-24 21:37 045 1 gusting 4 21.7
2020-Jan-24 21:32 321 1 gusting 2 21.7
2020-Jan-24 21:27 315 1 gusting 2 21.1
2020-Jan-24 21:22 315 1 gusting 4 21.1
2020-Jan-24 21:17 315 0 gusting 2 20.0
2020-Jan-24 21:12 335 0 gusting 2 20.0
2020-Jan-24 21:07 270 1 gusting 1 20.0
2020-Jan-24 21:02 315 1 gusting 4 20.0
2020-Jan-24 20:57 248 0 gusting 2 19.4
2020-Jan-24 20:42 342 0 gusting 4 17.8
2020-Jan-24 20:32 036 1 gusting 2 17.2
2020-Jan-24 20:27 338 1 gusting 2 17.2
2020-Jan-24 20:22 278 1 gusting 4 17.2
2020-Jan-24 20:17 292 1 gusting 4 16.7
2020-Jan-24 20:12 315 1 gusting 2 16.7
2020-Jan-24 20:07 292 1 gusting 4 16.7
2020-Jan-24 20:02 307 1 gusting 4 16.7
2020-Jan-24 19:57 315 1 gusting 1 16.7
2020-Jan-24 19:47 338 2 gusting 1 15.6
2020-Jan-24 19:32 332 1 gusting 4 15.0
2020-Jan-24 19:27 292 0 gusting 2 15.0
2020-Jan-24 19:22 282 15.0
2020-Jan-24 19:17 270 0 gusting 0 15.0
2020-Jan-24 19:13 283 0 gusting 1 14.4
2020-Jan-24 19:07 292 0 gusting 1 14.4
2020-Jan-24 18:52 270 14.4
2020-Jan-24 18:42 334 14.4
2020-Jan-24 18:37 022 13.9
2020-Jan-24 18:32 045 13.9
2020-Jan-24 18:22 031 13.9
2020-Jan-24 18:07 022 13.9
2020-Jan-24 18:02 022 13.9
2020-Jan-24 17:57 045 13.9
2020-Jan-24 17:52 068 13.9
2020-Jan-24 17:47 068 13.3
2020-Jan-24 17:32 328 13.3
2020-Jan-24 17:27 315 13.9
2020-Jan-24 17:22 028 13.3
2020-Jan-24 17:17 022 0 13.9
2020-Jan-24 17:12 341 0 gusting 0 13.3
2020-Jan-24 17:07 068 13.3
2020-Jan-24 17:02 046 13.3
2020-Jan-24 16:52 338 13.3
2020-Jan-24 16:47 045 13.3
2020-Jan-24 16:42 329 13.3
2020-Jan-24 16:37 045 0 gusting 1 13.3
2020-Jan-24 16:32 022 0 gusting 1 13.3
2020-Jan-24 16:27 022 13.3
2020-Jan-24 16:22 034 13.3
2020-Jan-24 16:17 045 12.8
2020-Jan-24 16:12 040 12.8
2020-Jan-24 16:07 315 12.8
2020-Jan-24 16:02 315 12.8
2020-Jan-24 15:57 315 12.2
2020-Jan-24 15:52 327 12.2
2020-Jan-24 15:47 270 12.2
2020-Jan-24 15:42 356 12.2
2020-Jan-24 15:32 078 12.2
2020-Jan-24 15:27 068 12.2
2020-Jan-24 15:22 112 12.2
2020-Jan-24 15:12 145 12.2
2020-Jan-24 14:52 246 12.8
2020-Jan-24 14:42 158 12.8
2020-Jan-24 14:32 177 13.3
2020-Jan-24 14:27 112 13.3
2020-Jan-24 14:17 112 13.3
2020-Jan-24 14:12 093 13.3
2020-Jan-24 14:07 090 13.3
2020-Jan-24 14:02 090 13.3
2020-Jan-24 13:57 135 13.3
2020-Jan-24 13:52 132 13.3
2020-Jan-24 13:37 090 13.3
2020-Jan-24 13:32 025 13.3
2020-Jan-24 13:27 090 13.3
2020-Jan-24 13:22 022 13.9
2020-Jan-24 13:17 13.9
2020-Jan-24 13:12 072 13.9
2020-Jan-24 13:07 13.9
2020-Jan-24 13:02 068 14.4
2020-Jan-24 12:57 068 14.4
2020-Jan-24 12:52 342 14.4
2020-Jan-24 12:42 338 14.4
2020-Jan-24 12:27 14.4
2020-Jan-24 12:22 040 14.4
2020-Jan-24 12:07 045 15.0
2020-Jan-24 12:02 063 15.0
2020-Jan-24 11:57 022 15.0
2020-Jan-24 11:52 022 15.0
2020-Jan-24 11:47 15.0
2020-Jan-24 11:32 022 0 gusting 0 15.6
2020-Jan-24 11:27 022 0 gusting 1 15.6
2020-Jan-24 11:17 045 0 gusting 1 15.6
2020-Jan-24 11:12 027 16.1
2020-Jan-24 11:07 045 16.1
2020-Jan-24 11:02 045 16.1
2020-Jan-24 10:57 045 16.1
2020-Jan-24 10:37 338 16.7
2020-Jan-24 10:32 004 16.7
2020-Jan-24 10:27 022 16.7
2020-Jan-24 10:22 16.7
2020-Jan-24 10:17 17.2
2020-Jan-24 10:12 344 0 gusting 0 17.2
2020-Jan-24 09:57 022 17.2
2020-Jan-24 09:47 022 1 gusting 1 17.8
2020-Jan-24 09:37 180 1 gusting 1 17.8
2020-Jan-24 09:32 338 1 gusting 2 18.3
2020-Jan-24 09:27 315 1 gusting 2 18.3
2020-Jan-24 09:22 355 0 gusting 1 18.3
2020-Jan-24 09:17 338 0 gusting 0 18.3
2020-Jan-24 09:12 18.9
2020-Jan-24 09:07 315 1 gusting 2 18.9
2020-Jan-24 09:02 320 1 gusting 2 18.9